owner,sensor,date,latitude,longitude,sea_water_turbidity,qcFlag 
SCCF RECON,ioos:station:SCCF:16:1,2009-12-01T00:00:00Z,26.4345,-81.9647,2.65,1111122 
SCCF RECON,ioos:station:SCCF:16:1,2009-12-01T01:00:00Z,26.4345,-81.9647,2.59,1111122 
SCCF RECON,ioos:station:SCCF:16:1,2009-12-01T02:00:00Z,26.4345,-81.9647,2.59,1111122 
SCCF RECON,ioos:station:SCCF:16:1,2009-12-01T03:00:00Z,26.4345,-81.9647,2.5,1111122 
SCCF RECON,ioos:station:SCCF:16:1,2009-12-01T04:00:00Z,26.4345,-81.9647,2.32,1111122 
SCCF RECON,ioos:station:SCCF:16:1,2009-12-01T05:00:00Z,26.4345,-81.9647,2.35,1111122 
SCCF RECON,ioos:station:SCCF:16:1,2009-12-01T06:00:00Z,26.4345,-81.9647,2.44,1111122 
SCCF RECON,ioos:station:SCCF:16:1,2009-12-01T07:00:00Z,26.4345,-81.9647,2.93,1111122 
SCCF RECON,ioos:station:SCCF:16:1,2009-12-01T08:00:00Z,26.4345,-81.9647,4.62,1111122 
SCCF RECON,ioos:station:SCCF:16:1,2009-12-01T09:00:00Z,26.4345,-81.9647,5.84,1111122 
SCCF RECON,ioos:station:SCCF:16:1,2009-12-01T10:00:00Z,26.4345,-81.9647,7.63,1111122 
SCCF RECON,ioos:station:SCCF:16:1,2009-12-01T11:00:00Z,26.4345,-81.9647,7.78,1111122 
SCCF RECON,ioos:station:SCCF:16:1,2009-12-01T12:00:00Z,26.4345,-81.9647,4.92,1111122 
SCCF RECON,ioos:station:SCCF:16:1,2009-12-01T13:00:00Z,26.4345,-81.9647,3.45,1111122 
SCCF RECON,ioos:station:SCCF:16:1,2009-12-01T14:00:00Z,26.4345,-81.9647,3.29,1111122 
SCCF RECON,ioos:station:SCCF:16:1,2009-12-01T15:00:00Z,26.4345,-81.9647,2.69,1111122 
SCCF RECON,ioos:station:SCCF:16:1,2009-12-01T16:00:00Z,26.4345,-81.9647,2.6,1111122 
SCCF RECON,ioos:station:SCCF:16:1,2009-12-01T17:00:00Z,26.4345,-81.9647,2.54,1111122 
SCCF RECON,ioos:station:SCCF:16:1,2009-12-01T18:00:00Z,26.4345,-81.9647,2.36,1111122 
SCCF RECON,ioos:station:SCCF:16:1,2009-12-01T19:00:00Z,26.4345,-81.9647,2.42,1111122 
SCCF RECON,ioos:station:SCCF:16:1,2009-12-01T20:00:00Z,26.4345,-81.9647,2.38,1111122 
SCCF RECON,ioos:station:SCCF:16:1,2009-12-01T21:00:00Z,26.4345,-81.9647,2.52,1111122 
SCCF RECON,ioos:station:SCCF:16:1,2009-12-01T22:00:00Z,26.4345,-81.9647,2.46,1111122 
SCCF RECON,ioos:station:SCCF:16:1,2009-12-01T23:00:00Z,26.4345,-81.9647,2.64,1111122 
SCCF RECON,ioos:station:SCCF:16:1,2009-12-02T00:00:00Z,26.4345,-81.9647,2.4,1111122 
SCCF RECON,ioos:station:SCCF:16:1,2009-12-02T01:00:00Z,26.4345,-81.9647,2.41,1111122 
SCCF RECON,ioos:station:SCCF:16:1,2009-12-02T02:00:00Z,26.4345,-81.9647,2.58,1111122 
SCCF RECON,ioos:station:SCCF:16:1,2009-12-02T03:00:00Z,26.4345,-81.9647,2.38,1111122 
SCCF RECON,ioos:station:SCCF:16:1,2009-12-02T04:00:00Z,26.4345,-81.9647,2.41,1111122 
SCCF RECON,ioos:station:SCCF:16:1,2009-12-02T05:00:00Z,26.4345,-81.9647,2.4,1111122 
SCCF RECON,ioos:station:SCCF:16:1,2009-12-02T06:00:00Z,26.4345,-81.9647,2.45,1111122 
SCCF RECON,ioos:station:SCCF:16:1,2009-12-02T07:00:00Z,26.4345,-81.9647,2.83,1111122 
SCCF RECON,ioos:station:SCCF:16:1,2009-12-02T08:00:00Z,26.4345,-81.9647,3.93,1111122 
SCCF RECON,ioos:station:SCCF:16:1,2009-12-02T09:00:00Z,26.4345,-81.9647,6.3,1111122 
SCCF RECON,ioos:station:SCCF:16:1,2009-12-02T10:00:00Z,26.4345,-81.9647,8.93,1111122 
SCCF RECON,ioos:station:SCCF:16:1,2009-12-02T11:00:00Z,26.4345,-81.9647,8.63,1111122 
SCCF RECON,ioos:station:SCCF:16:1,2009-12-02T12:00:00Z,26.4345,-81.9647,8.1,1111122 
SCCF RECON,ioos:station:SCCF:16:1,2009-12-02T13:00:00Z,26.4345,-81.9647,5.53,1111122 
SCCF RECON,ioos:station:SCCF:16:1,2009-12-02T14:00:00Z,26.4345,-81.9647,5.68,1111122 
SCCF RECON,ioos:station:SCCF:16:1,2009-12-02T15:00:00Z,26.4345,-81.9647,4.74,1111122 
SCCF RECON,ioos:station:SCCF:16:1,2009-12-02T16:00:00Z,26.4345,-81.9647,3.88,1111122 
SCCF RECON,ioos:station:SCCF:16:1,2009-12-02T17:00:00Z,26.4345,-81.9647,4.77,1111122 
SCCF RECON,ioos:station:SCCF:16:1,2009-12-02T18:00:00Z,26.4345,-81.9647,4.71,1111122 
SCCF RECON,ioos:station:SCCF:16:1,2009-12-02T19:00:00Z,26.4345,-81.9647,5.94,1111122 
SCCF RECON,ioos:station:SCCF:16:1,2009-12-02T20:00:00Z,26.4345,-81.9647,6.42,1111122 
SCCF RECON,ioos:station:SCCF:16:1,2009-12-02T21:00:00Z,26.4345,-81.9647,8.3,1111122 
SCCF RECON,ioos:station:SCCF:16:1,2009-12-02T22:00:00Z,26.4345,-81.9647,10.21,1111122 
SCCF RECON,ioos:station:SCCF:16:1,2009-12-02T23:00:00Z,26.4345,-81.9647,9.05,1111122 
SCCF RECON,ioos:station:SCCF:16:1,2009-12-03T00:00:00Z,26.4345,-81.9647,9.62,1111122 
SCCF RECON,ioos:station:SCCF:16:1,2009-12-03T01:00:00Z,26.4345,-81.9647,8.7,1111122 
SCCF RECON,ioos:station:SCCF:16:1,2009-12-03T02:00:00Z,26.4345,-81.9647,7.17,1111122 
SCCF RECON,ioos:station:SCCF:16:1,2009-12-03T03:00:00Z,26.4345,-81.9647,10.9,1111122 
SCCF RECON,ioos:station:SCCF:16:1,2009-12-03T04:00:00Z,26.4345,-81.9647,17.33,1111122 
SCCF RECON,ioos:station:SCCF:16:1,2009-12-03T05:00:00Z,26.4345,-81.9647,7.79,1111122 
SCCF RECON,ioos:station:SCCF:16:1,2009-12-03T06:00:00Z,26.4345,-81.9647,7.55,1111122 
SCCF RECON,ioos:station:SCCF:16:1,2009-12-03T07:00:00Z,26.4345,-81.9647,9.01,1111122 
SCCF RECON,ioos:station:SCCF:16:1,2009-12-03T08:00:00Z,26.4345,-81.9647,9.03,1111122 
SCCF RECON,ioos:station:SCCF:16:1,2009-12-03T09:00:00Z,26.4345,-81.9647,13.32,1111122 
SCCF RECON,ioos:station:SCCF:16:1,2009-12-03T10:00:00Z,26.4345,-81.9647,13.97,1111122 
SCCF RECON,ioos:station:SCCF:16:1,2009-12-03T11:00:00Z,26.4345,-81.9647,17.13,1111122 
SCCF RECON,ioos:station:SCCF:16:1,2009-12-03T12:00:00Z,26.4345,-81.9647,13.94,1111122 
SCCF RECON,ioos:station:SCCF:16:1,2009-12-03T13:00:00Z,26.4345,-81.9647,11.23,1111122 
SCCF RECON,ioos:station:SCCF:16:1,2009-12-03T14:00:00Z,26.4345,-81.9647,8.48,1111122 
SCCF RECON,ioos:station:SCCF:16:1,2009-12-03T15:00:00Z,26.4345,-81.9647,10.13,1111122 
SCCF RECON,ioos:station:SCCF:16:1,2009-12-03T16:00:00Z,26.4345,-81.9647,10.4,1111122 
SCCF RECON,ioos:station:SCCF:16:1,2009-12-03T17:00:00Z,26.4345,-81.9647,10.4,1111122 
SCCF RECON,ioos:station:SCCF:16:1,2009-12-03T18:00:00Z,26.4345,-81.9647,8.06,1111122 
SCCF RECON,ioos:station:SCCF:16:1,2009-12-03T19:00:00Z,26.4345,-81.9647,7.46,1111122 
SCCF RECON,ioos:station:SCCF:16:1,2009-12-03T20:00:00Z,26.4345,-81.9647,6.71,1111122 
SCCF RECON,ioos:station:SCCF:16:1,2009-12-03T21:00:00Z,26.4345,-81.9647,8.32,1111122 
SCCF RECON,ioos:station:SCCF:16:1,2009-12-03T22:00:00Z,26.4345,-81.9647,7.17,1111122 
SCCF RECON,ioos:station:SCCF:16:1,2009-12-03T23:00:00Z,26.4345,-81.9647,6.59,1111122 
SCCF RECON,ioos:station:SCCF:16:1,2009-12-04T00:00:00Z,26.4345,-81.9647,5.87,1111122 
SCCF RECON,ioos:station:SCCF:16:1,2009-12-04T01:00:00Z,26.4345,-81.9647,5.67,1111122 
SCCF RECON,ioos:station:SCCF:16:1,2009-12-04T02:00:00Z,26.4345,-81.9647,5.31,1111122 
SCCF RECON,ioos:station:SCCF:16:1,2009-12-04T03:00:00Z,26.4345,-81.9647,6.95,1111122 
SCCF RECON,ioos:station:SCCF:16:1,2009-12-04T04:00:00Z,26.4345,-81.9647,8.87,1111122 
SCCF RECON,ioos:station:SCCF:16:1,2009-12-04T05:00:00Z,26.4345,-81.9647,7.62,1111122 
SCCF RECON,ioos:station:SCCF:16:1,2009-12-04T06:00:00Z,26.4345,-81.9647,7.16,1111122 
SCCF RECON,ioos:station:SCCF:16:1,2009-12-04T07:00:00Z,26.4345,-81.9647,8.16,1111122 
SCCF RECON,ioos:station:SCCF:16:1,2009-12-04T08:00:00Z,26.4345,-81.9647,6.98,1111122 
SCCF RECON,ioos:station:SCCF:16:1,2009-12-04T09:00:00Z,26.4345,-81.9647,8.31,1111122 
SCCF RECON,ioos:station:SCCF:16:1,2009-12-04T10:00:00Z,26.4345,-81.9647,7.87,1111122 
SCCF RECON,ioos:station:SCCF:16:1,2009-12-04T11:00:00Z,26.4345,-81.9647,9.43,1111122 
SCCF RECON,ioos:station:SCCF:16:1,2009-12-04T12:00:00Z,26.4345,-81.9647,11.12,1111122 
SCCF RECON,ioos:station:SCCF:16:1,2009-12-04T13:00:00Z,26.4345,-81.9647,12.22,1111122 
SCCF RECON,ioos:station:SCCF:16:1,2009-12-04T14:00:00Z,26.4345,-81.9647,9.33,1111122 
SCCF RECON,ioos:station:SCCF:16:1,2009-12-04T15:00:00Z,26.4345,-81.9647,6.51,1111122 
SCCF RECON,ioos:station:SCCF:16:1,2009-12-04T16:00:00Z,26.4345,-81.9647,6.52,1111122 
SCCF RECON,ioos:station:SCCF:16:1,2009-12-04T17:00:00Z,26.4345,-81.9647,6.73,1111122 
SCCF RECON,ioos:station:SCCF:16:1,2009-12-04T18:00:00Z,26.4345,-81.9647,8.09,1111122 
SCCF RECON,ioos:station:SCCF:16:1,2009-12-04T19:00:00Z,26.4345,-81.9647,9.7,1111122 
SCCF RECON,ioos:station:SCCF:16:1,2009-12-04T20:00:00Z,26.4345,-81.9647,7.82,1111122 
SCCF RECON,ioos:station:SCCF:16:1,2009-12-04T21:00:00Z,26.4345,-81.9647,7.49,1111122 
SCCF RECON,ioos:station:SCCF:16:1,2009-12-04T22:00:00Z,26.4345,-81.9647,5.35,1111122 
SCCF RECON,ioos:station:SCCF:16:1,2009-12-04T23:00:00Z,26.4345,-81.9647,6.04,1111122 
SCCF RECON,ioos:station:SCCF:16:1,2009-12-05T00:00:00Z,26.4345,-81.9647,5.92,1111122 
SCCF RECON,ioos:station:SCCF:16:1,2009-12-05T01:00:00Z,26.4345,-81.9647,5.51,1111122 
SCCF RECON,ioos:station:SCCF:16:1,2009-12-05T02:00:00Z,26.4345,-81.9647,5.73,1111122 
SCCF RECON,ioos:station:SCCF:16:1,2009-12-05T03:00:00Z,26.4345,-81.9647,5.7,1111122 
SCCF RECON,ioos:station:SCCF:16:1,2009-12-05T04:00:00Z,26.4345,-81.9647,6.42,1111122 
SCCF RECON,ioos:station:SCCF:16:1,2009-12-05T05:00:00Z,26.4345,-81.9647,6.28,1111122 
SCCF RECON,ioos:station:SCCF:16:1,2009-12-05T06:00:00Z,26.4345,-81.9647,6.05,1111122 
SCCF RECON,ioos:station:SCCF:16:1,2009-12-05T07:00:00Z,26.4345,-81.9647,6.45,1111122 
SCCF RECON,ioos:station:SCCF:16:1,2009-12-05T08:00:00Z,26.4345,-81.9647,6.13,1111122 
SCCF RECON,ioos:station:SCCF:16:1,2009-12-05T09:00:00Z,26.4345,-81.9647,6.06,1111122 
SCCF RECON,ioos:station:SCCF:16:1,2009-12-05T10:00:00Z,26.4345,-81.9647,5.96,1111122 
SCCF RECON,ioos:station:SCCF:16:1,2009-12-05T11:00:00Z,26.4345,-81.9647,6.18,1111122 
SCCF RECON,ioos:station:SCCF:16:1,2009-12-05T12:00:00Z,26.4345,-81.9647,8.64,1111122 
SCCF RECON,ioos:station:SCCF:16:1,2009-12-05T13:00:00Z,26.4345,-81.9647,7.37,1111122 
SCCF RECON,ioos:station:SCCF:16:1,2009-12-05T14:00:00Z,26.4345,-81.9647,7.49,1111122 
SCCF RECON,ioos:station:SCCF:16:1,2009-12-05T15:00:00Z,26.4345,-81.9647,6.19,1111122 
SCCF RECON,ioos:station:SCCF:16:1,2009-12-05T16:00:00Z,26.4345,-81.9647,8.67,1111122 
SCCF RECON,ioos:station:SCCF:16:1,2009-12-05T17:00:00Z,26.4345,-81.9647,8.92,1111122 
SCCF RECON,ioos:station:SCCF:16:1,2009-12-05T18:00:00Z,26.4345,-81.9647,6.43,1111122 
SCCF RECON,ioos:station:SCCF:16:1,2009-12-05T19:00:00Z,26.4345,-81.9647,6.63,1111122 
SCCF RECON,ioos:station:SCCF:16:1,2009-12-05T20:00:00Z,26.4345,-81.9647,7.39,1111122 
SCCF RECON,ioos:station:SCCF:16:1,2009-12-05T21:00:00Z,26.4345,-81.9647,7.04,1111122 
SCCF RECON,ioos:station:SCCF:16:1,2009-12-05T22:00:00Z,26.4345,-81.9647,5.21,1111122 
SCCF RECON,ioos:station:SCCF:16:1,2009-12-05T23:00:00Z,26.4345,-81.9647,5.46,1111122 
SCCF RECON,ioos:station:SCCF:16:1,2009-12-06T00:00:00Z,26.4345,-81.9647,6.78,1111122 
SCCF RECON,ioos:station:SCCF:16:1,2009-12-06T01:00:00Z,26.4345,-81.9647,7.18,1111122 
SCCF RECON,ioos:station:SCCF:16:1,2009-12-06T02:00:00Z,26.4345,-81.9647,5.73,1111122 
SCCF RECON,ioos:station:SCCF:16:1,2009-12-06T03:00:00Z,26.4345,-81.9647,6.07,1111122 
SCCF RECON,ioos:station:SCCF:16:1,2009-12-06T04:00:00Z,26.4345,-81.9647,6.08,1111122 
SCCF RECON,ioos:station:SCCF:16:1,2009-12-06T05:00:00Z,26.4345,-81.9647,6.23,1111122 
SCCF RECON,ioos:station:SCCF:16:1,2009-12-06T06:00:00Z,26.4345,-81.9647,6.18,1111122 
SCCF RECON,ioos:station:SCCF:16:1,2009-12-06T07:00:00Z,26.4345,-81.9647,5.66,1111122 
SCCF RECON,ioos:station:SCCF:16:1,2009-12-06T08:00:00Z,26.4345,-81.9647,5.75,1111122 
SCCF RECON,ioos:station:SCCF:16:1,2009-12-06T09:00:00Z,26.4345,-81.9647,5.75,1111122 
SCCF RECON,ioos:station:SCCF:16:1,2009-12-06T10:00:00Z,26.4345,-81.9647,5.52,1111122 
SCCF RECON,ioos:station:SCCF:16:1,2009-12-06T11:00:00Z,26.4345,-81.9647,5.33,1111122 
SCCF RECON,ioos:station:SCCF:16:1,2009-12-06T12:00:00Z,26.4345,-81.9647,6.51,1111122 
SCCF RECON,ioos:station:SCCF:16:1,2009-12-06T13:00:00Z,26.4345,-81.9647,8.86,1111122 
SCCF RECON,ioos:station:SCCF:16:1,2009-12-06T14:00:00Z,26.4345,-81.9647,8.79,1111122 
SCCF RECON,ioos:station:SCCF:16:1,2009-12-06T15:00:00Z,26.4345,-81.9647,9.71,1111122 
SCCF RECON,ioos:station:SCCF:16:1,2009-12-06T16:00:00Z,26.4345,-81.9647,6.5,1111122 
SCCF RECON,ioos:station:SCCF:16:1,2009-12-06T17:00:00Z,26.4345,-81.9647,7.05,1111122 
SCCF RECON,ioos:station:SCCF:16:1,2009-12-06T18:00:00Z,26.4345,-81.9647,7.93,1111122 
SCCF RECON,ioos:station:SCCF:16:1,2009-12-06T19:00:00Z,26.4345,-81.9647,11.38,1111122 
SCCF RECON,ioos:station:SCCF:16:1,2009-12-06T20:00:00Z,26.4345,-81.9647,7.07,1111122 
SCCF RECON,ioos:station:SCCF:16:1,2009-12-06T21:00:00Z,26.4345,-81.9647,7.16,1111122 
SCCF RECON,ioos:station:SCCF:16:1,2009-12-06T22:00:00Z,26.4345,-81.9647,5.37,1111122 
SCCF RECON,ioos:station:SCCF:16:1,2009-12-06T23:00:00Z,26.4345,-81.9647,5.59,1111122 
SCCF RECON,ioos:station:SCCF:16:1,2009-12-07T00:00:00Z,26.4345,-81.9647,146.06,1111122 
SCCF RECON,ioos:station:SCCF:16:1,2009-12-07T01:00:00Z,26.4345,-81.9647,167.74,1111122 
SCCF RECON,ioos:station:SCCF:16:1,2009-12-07T02:00:00Z,26.4345,-81.9647,186.63,1111122 
SCCF RECON,ioos:station:SCCF:16:1,2009-12-07T03:00:00Z,26.4345,-81.9647,175.41,1111122 
SCCF RECON,ioos:station:SCCF:16:1,2009-12-07T04:00:00Z,26.4345,-81.9647,156.92,1111122 
SCCF RECON,ioos:station:SCCF:16:1,2009-12-07T05:00:00Z,26.4345,-81.9647,181.91,1111122 
SCCF RECON,ioos:station:SCCF:16:1,2009-12-07T06:00:00Z,26.4345,-81.9647,116.25,1111122 
SCCF RECON,ioos:station:SCCF:16:1,2009-12-07T07:00:00Z,26.4345,-81.9647,83.98,1111122 
SCCF RECON,ioos:station:SCCF:16:1,2009-12-07T08:00:00Z,26.4345,-81.9647,127.61,1111122 
SCCF RECON,ioos:station:SCCF:16:1,2009-12-07T09:00:00Z,26.4345,-81.9647,188.64,1111122 
SCCF RECON,ioos:station:SCCF:16:1,2009-12-07T10:00:00Z,26.4345,-81.9647,172.93,1111122 
SCCF RECON,ioos:station:SCCF:16:1,2009-12-07T11:00:00Z,26.4345,-81.9647,188.16,1111122 
SCCF RECON,ioos:station:SCCF:16:1,2009-12-07T12:00:00Z,26.4345,-81.9647,4.74,1111122 
SCCF RECON,ioos:station:SCCF:16:1,2009-12-07T13:00:00Z,26.4345,-81.9647,5.18,1111122 
SCCF RECON,ioos:station:SCCF:16:1,2009-12-07T14:00:00Z,26.4345,-81.9647,6.76,1111122 
SCCF RECON,ioos:station:SCCF:16:1,2009-12-07T15:00:00Z,26.4345,-81.9647,6.05,1111122 
SCCF RECON,ioos:station:SCCF:16:1,2009-12-07T16:00:00Z,26.4345,-81.9647,6.36,1111122 
SCCF RECON,ioos:station:SCCF:16:1,2009-12-07T17:00:00Z,26.4345,-81.9647,5.38,1111122 
SCCF RECON,ioos:station:SCCF:16:1,2009-12-07T18:00:00Z,26.4345,-81.9647,7.46,1111122 
SCCF RECON,ioos:station:SCCF:16:1,2009-12-07T19:00:00Z,26.4345,-81.9647,4.73,1111122 
SCCF RECON,ioos:station:SCCF:16:1,2009-12-07T20:00:00Z,26.4345,-81.9647,4.88,1111122 
SCCF RECON,ioos:station:SCCF:16:1,2009-12-07T21:00:00Z,26.4345,-81.9647,4.71,1111122 
SCCF RECON,ioos:station:SCCF:16:1,2009-12-07T22:00:00Z,26.4345,-81.9647,4.09,1111122 
SCCF RECON,ioos:station:SCCF:16:1,2009-12-07T23:00:00Z,26.4345,-81.9647,3.81,1111122 
SCCF RECON,ioos:station:SCCF:16:1,2009-12-08T00:00:00Z,26.4345,-81.9647,3.93,1111122 
SCCF RECON,ioos:station:SCCF:16:1,2009-12-08T01:00:00Z,26.4345,-81.9647,3.95,1111122 
SCCF RECON,ioos:station:SCCF:16:1,2009-12-08T02:00:00Z,26.4345,-81.9647,3.96,1111122 
SCCF RECON,ioos:station:SCCF:16:1,2009-12-08T03:00:00Z,26.4345,-81.9647,3.77,1111122 
SCCF RECON,ioos:station:SCCF:16:1,2009-12-08T04:00:00Z,26.4345,-81.9647,3.5,1111122 
SCCF RECON,ioos:station:SCCF:16:1,2009-12-08T05:00:00Z,26.4345,-81.9647,3.7,1111122 
SCCF RECON,ioos:station:SCCF:16:1,2009-12-08T06:00:00Z,26.4345,-81.9647,78.98,1111122 
SCCF RECON,ioos:station:SCCF:16:1,2009-12-08T07:00:00Z,26.4345,-81.9647,140.91,1111122 
SCCF RECON,ioos:station:SCCF:16:1,2009-12-08T08:00:00Z,26.4345,-81.9647,151.4,1111122 
SCCF RECON,ioos:station:SCCF:16:1,2009-12-08T09:00:00Z,26.4345,-81.9647,158.06,1111122 
SCCF RECON,ioos:station:SCCF:16:1,2009-12-08T10:00:00Z,26.4345,-81.9647,124.67,1111122 
SCCF RECON,ioos:station:SCCF:16:1,2009-12-08T11:00:00Z,26.4345,-81.9647,170.88,1111122 
SCCF RECON,ioos:station:SCCF:16:1,2009-12-08T12:00:00Z,26.4345,-81.9647,3.17,1111122 
SCCF RECON,ioos:station:SCCF:16:1,2009-12-08T13:00:00Z,26.4345,-81.9647,2.81,1111122 
SCCF RECON,ioos:station:SCCF:16:1,2009-12-08T14:00:00Z,26.4345,-81.9647,3.02,1111122 
SCCF RECON,ioos:station:SCCF:16:1,2009-12-08T15:00:00Z,26.4345,-81.9647,3.23,1111122 
SCCF RECON,ioos:station:SCCF:16:1,2009-12-08T16:00:00Z,26.4345,-81.9647,3.38,1111122 
SCCF RECON,ioos:station:SCCF:16:1,2009-12-08T17:00:00Z,26.4345,-81.9647,3.44,1111122 
SCCF RECON,ioos:station:SCCF:16:1,2009-12-08T18:00:00Z,26.4345,-81.9647,3.56,1111122 
SCCF RECON,ioos:station:SCCF:16:1,2009-12-08T19:00:00Z,26.4345,-81.9647,3.1,1111122 
SCCF RECON,ioos:station:SCCF:16:1,2009-12-08T20:00:00Z,26.4345,-81.9647,3.5,1111122 
SCCF RECON,ioos:station:SCCF:16:1,2009-12-08T21:00:00Z,26.4345,-81.9647,2.93,1111122 
SCCF RECON,ioos:station:SCCF:16:1,2009-12-08T22:00:00Z,26.4345,-81.9647,2.55,1111122 
SCCF RECON,ioos:station:SCCF:16:1,2009-12-08T23:00:00Z,26.4345,-81.9647,2.7,1111122 
SCCF RECON,ioos:station:SCCF:16:1,2009-12-09T00:00:00Z,26.4345,-81.9647,2.86,1111122 
SCCF RECON,ioos:station:SCCF:16:1,2009-12-09T01:00:00Z,26.4345,-81.9647,2.85,1111122 
SCCF RECON,ioos:station:SCCF:16:1,2009-12-09T02:00:00Z,26.4345,-81.9647,2.61,1111122 
SCCF RECON,ioos:station:SCCF:16:1,2009-12-09T03:00:00Z,26.4345,-81.9647,2.59,1111122 
SCCF RECON,ioos:station:SCCF:16:1,2009-12-09T04:00:00Z,26.4345,-81.9647,2.7,1111122 
SCCF RECON,ioos:station:SCCF:16:1,2009-12-09T05:00:00Z,26.4345,-81.9647,2.88,1111122 
SCCF RECON,ioos:station:SCCF:16:1,2009-12-09T06:00:00Z,26.4345,-81.9647,2.73,1111122 
SCCF RECON,ioos:station:SCCF:16:1,2009-12-09T07:00:00Z,26.4345,-81.9647,2.83,1111122 
SCCF RECON,ioos:station:SCCF:16:1,2009-12-09T08:00:00Z,26.4345,-81.9647,2.8,1111122 
SCCF RECON,ioos:station:SCCF:16:1,2009-12-09T09:00:00Z,26.4345,-81.9647,2.89,1111122 
SCCF RECON,ioos:station:SCCF:16:1,2009-12-09T10:00:00Z,26.4345,-81.9647,2.82,1111122 
SCCF RECON,ioos:station:SCCF:16:1,2009-12-09T11:00:00Z,26.4345,-81.9647,2.7,1111122 
SCCF RECON,ioos:station:SCCF:16:1,2009-12-09T12:00:00Z,26.4345,-81.9647,2.59,1111122 
SCCF RECON,ioos:station:SCCF:16:1,2009-12-09T13:00:00Z,26.4345,-81.9647,2.55,1111122 
SCCF RECON,ioos:station:SCCF:16:1,2009-12-09T14:00:00Z,26.4345,-81.9647,2.78,1111122 
SCCF RECON,ioos:station:SCCF:16:1,2009-12-09T15:00:00Z,26.4345,-81.9647,2.53,1111122 
SCCF RECON,ioos:station:SCCF:16:1,2009-12-09T16:00:00Z,26.4345,-81.9647,2.72,1111122 
SCCF RECON,ioos:station:SCCF:16:1,2009-12-09T17:00:00Z,26.4345,-81.9647,2.99,1111122 
SCCF RECON,ioos:station:SCCF:16:1,2009-12-09T18:00:00Z,26.4345,-81.9647,3.01,1111122 
SCCF RECON,ioos:station:SCCF:16:1,2009-12-09T19:00:00Z,26.4345,-81.9647,2.91,1111122 
SCCF RECON,ioos:station:SCCF:16:1,2009-12-09T20:00:00Z,26.4345,-81.9647,3.01,1111122 
SCCF RECON,ioos:station:SCCF:16:1,2009-12-09T21:00:00Z,26.4345,-81.9647,2.87,1111122 
SCCF RECON,ioos:station:SCCF:16:1,2009-12-09T22:00:00Z,26.4345,-81.9647,2.88,1111122 
SCCF RECON,ioos:station:SCCF:16:1,2009-12-09T23:00:00Z,26.4345,-81.9647,3.34,1111122 
SCCF RECON,ioos:station:SCCF:16:1,2009-12-10T00:00:00Z,26.4345,-81.9647,3.63,1111122 
SCCF RECON,ioos:station:SCCF:16:1,2009-12-10T01:00:00Z,26.4345,-81.9647,3.91,1111122 
SCCF RECON,ioos:station:SCCF:16:1,2009-12-10T02:00:00Z,26.4345,-81.9647,4.08,1111122 
SCCF RECON,ioos:station:SCCF:16:1,2009-12-10T03:00:00Z,26.4345,-81.9647,4.05,1111122 
SCCF RECON,ioos:station:SCCF:16:1,2009-12-10T04:00:00Z,26.4345,-81.9647,3.9,1111122 
SCCF RECON,ioos:station:SCCF:16:1,2009-12-10T05:00:00Z,26.4345,-81.9647,5.21,1111122 
SCCF RECON,ioos:station:SCCF:16:1,2009-12-10T06:00:00Z,26.4345,-81.9647,3.45,1111122 
SCCF RECON,ioos:station:SCCF:16:1,2009-12-10T07:00:00Z,26.4345,-81.9647,3.57,1111122 
SCCF RECON,ioos:station:SCCF:16:1,2009-12-10T08:00:00Z,26.4345,-81.9647,3.31,1111122 
SCCF RECON,ioos:station:SCCF:16:1,2009-12-10T09:00:00Z,26.4345,-81.9647,2.88,1111122 
SCCF RECON,ioos:station:SCCF:16:1,2009-12-10T10:00:00Z,26.4345,-81.9647,2.85,1111122 
SCCF RECON,ioos:station:SCCF:16:1,2009-12-10T11:00:00Z,26.4345,-81.9647,3.3,1111122 
SCCF RECON,ioos:station:SCCF:16:1,2009-12-10T12:00:00Z,26.4345,-81.9647,4.43,1111122 
SCCF RECON,ioos:station:SCCF:16:1,2009-12-10T13:00:00Z,26.4345,-81.9647,3.9,1111122 
SCCF RECON,ioos:station:SCCF:16:1,2009-12-10T14:00:00Z,26.4345,-81.9647,4.09,1111122 
SCCF RECON,ioos:station:SCCF:16:1,2009-12-10T15:00:00Z,26.4345,-81.9647,4.05,1111122 
SCCF RECON,ioos:station:SCCF:16:1,2009-12-10T16:00:00Z,26.4345,-81.9647,3.86,1111122 
SCCF RECON,ioos:station:SCCF:16:1,2009-12-10T17:00:00Z,26.4345,-81.9647,3.55,1111122 
SCCF RECON,ioos:station:SCCF:16:1,2009-12-10T18:00:00Z,26.4345,-81.9647,3.93,1111122 
SCCF RECON,ioos:station:SCCF:16:1,2009-12-10T19:00:00Z,26.4345,-81.9647,3.51,1111122 
SCCF RECON,ioos:station:SCCF:16:1,2009-12-10T20:00:00Z,26.4345,-81.9647,3.04,1111122 
SCCF RECON,ioos:station:SCCF:16:1,2009-12-10T21:00:00Z,26.4345,-81.9647,3.01,1111122 
SCCF RECON,ioos:station:SCCF:16:1,2009-12-10T22:00:00Z,26.4345,-81.9647,4.76,1111122 
SCCF RECON,ioos:station:SCCF:16:1,2009-12-10T23:00:00Z,26.4345,-81.9647,4.76,1111122 
SCCF RECON,ioos:station:SCCF:16:1,2009-12-11T00:00:00Z,26.4345,-81.9647,101.45,1111122 
SCCF RECON,ioos:station:SCCF:16:1,2009-12-11T01:00:00Z,26.4345,-81.9647,121.75,1111122 
SCCF RECON,ioos:station:SCCF:16:1,2009-12-11T02:00:00Z,26.4345,-81.9647,134.15,1111122 
SCCF RECON,ioos:station:SCCF:16:1,2009-12-11T03:00:00Z,26.4345,-81.9647,95.09,1111122 
SCCF RECON,ioos:station:SCCF:16:1,2009-12-11T04:00:00Z,26.4345,-81.9647,5.25,1111122 
SCCF RECON,ioos:station:SCCF:16:1,2009-12-11T05:00:00Z,26.4345,-81.9647,4.9,1111122 
SCCF RECON,ioos:station:SCCF:16:1,2009-12-11T06:00:00Z,26.4345,-81.9647,3.96,1111122 
SCCF RECON,ioos:station:SCCF:16:1,2009-12-11T07:00:00Z,26.4345,-81.9647,4.01,1111122 
SCCF RECON,ioos:station:SCCF:16:1,2009-12-11T08:00:00Z,26.4345,-81.9647,3.97,1111122 
SCCF RECON,ioos:station:SCCF:16:1,2009-12-11T09:00:00Z,26.4345,-81.9647,3.44,1111122 
SCCF RECON,ioos:station:SCCF:16:1,2009-12-11T10:00:00Z,26.4345,-81.9647,3.48,1111122 
SCCF RECON,ioos:station:SCCF:16:1,2009-12-11T11:00:00Z,26.4345,-81.9647,3.13,1111122 
SCCF RECON,ioos:station:SCCF:16:1,2009-12-11T12:00:00Z,26.4345,-81.9647,2.95,1111122 
SCCF RECON,ioos:station:SCCF:16:1,2009-12-11T13:00:00Z,26.4345,-81.9647,3.0,1111122 
SCCF RECON,ioos:station:SCCF:16:1,2009-12-11T14:00:00Z,26.4345,-81.9647,3.08,1111122 
SCCF RECON,ioos:station:SCCF:16:1,2009-12-11T15:00:00Z,26.4345,-81.9647,3.06,1111122 
SCCF RECON,ioos:station:SCCF:16:1,2009-12-11T16:00:00Z,26.4345,-81.9647,3.08,1111122 
SCCF RECON,ioos:station:SCCF:16:1,2009-12-11T17:00:00Z,26.4345,-81.9647,3.01,1111122 
SCCF RECON,ioos:station:SCCF:16:1,2009-12-11T18:00:00Z,26.4345,-81.9647,2.97,1111122 
SCCF RECON,ioos:station:SCCF:16:1,2009-12-11T19:00:00Z,26.4345,-81.9647,2.89,1111122 
SCCF RECON,ioos:station:SCCF:16:1,2009-12-11T20:00:00Z,26.4345,-81.9647,2.91,1111122 
SCCF RECON,ioos:station:SCCF:16:1,2009-12-11T21:00:00Z,26.4345,-81.9647,3.55,1111122 
SCCF RECON,ioos:station:SCCF:16:1,2009-12-11T22:00:00Z,26.4345,-81.9647,5.35,1111122 
SCCF RECON,ioos:station:SCCF:16:1,2009-12-11T23:00:00Z,26.4345,-81.9647,6.53,1111122 
SCCF RECON,ioos:station:SCCF:16:1,2009-12-12T00:00:00Z,26.4345,-81.9647,7.03,1111122 
SCCF RECON,ioos:station:SCCF:16:1,2009-12-12T01:00:00Z,26.4345,-81.9647,7.09,1111122 
SCCF RECON,ioos:station:SCCF:16:1,2009-12-12T02:00:00Z,26.4345,-81.9647,5.74,1111122 
SCCF RECON,ioos:station:SCCF:16:1,2009-12-12T03:00:00Z,26.4345,-81.9647,5.44,1111122 
SCCF RECON,ioos:station:SCCF:16:1,2009-12-12T04:00:00Z,26.4345,-81.9647,5.35,1111122 
SCCF RECON,ioos:station:SCCF:16:1,2009-12-12T05:00:00Z,26.4345,-81.9647,4.89,1111122 
SCCF RECON,ioos:station:SCCF:16:1,2009-12-12T06:00:00Z,26.4345,-81.9647,4.86,1111122 
SCCF RECON,ioos:station:SCCF:16:1,2009-12-12T07:00:00Z,26.4345,-81.9647,5.0,1111122 
SCCF RECON,ioos:station:SCCF:16:1,2009-12-12T08:00:00Z,26.4345,-81.9647,4.78,1111122 
SCCF RECON,ioos:station:SCCF:16:1,2009-12-12T09:00:00Z,26.4345,-81.9647,4.21,1111122 
SCCF RECON,ioos:station:SCCF:16:1,2009-12-12T10:00:00Z,26.4345,-81.9647,3.55,1111122 
SCCF RECON,ioos:station:SCCF:16:1,2009-12-12T11:00:00Z,26.4345,-81.9647,3.38,1111122 
SCCF RECON,ioos:station:SCCF:16:1,2009-12-12T12:00:00Z,26.4345,-81.9647,3.13,1111122 
SCCF RECON,ioos:station:SCCF:16:1,2009-12-12T13:00:00Z,26.4345,-81.9647,3.12,1111122 